{"data":{"norad_id":59600,"epoch":"2026-05-24T12:56:51.909216Z","epoch_age_seconds":125041,"freshness":"FRESH","line1":"1 59600U 24079C   26144.53948969  .00000014  00000+0  00000+0 0  9995","line2":"2 59600  55.1009 101.7389 0001697  32.5284 327.4422  1.70474140 12968","mean_motion":1.7047414,"eccentricity":0.0001697,"inclination_deg":55.1009,"raan_deg":101.7389,"arg_perigee_deg":32.5284,"mean_anomaly_deg":327.4422,"bstar":0,"rev_number":1296,"period_min":844.70289745999,"perigee_km":23217.143680042,"apogee_km":23227.19002317,"semimajor_km":29600.303851606,"source":"CELESTRAK","updated_at":"2026-05-25T13:38:24.061998Z"}}